Time,TemperatureF,DewpointF,PressureIn,WindDirection,WindDirectionDegrees,WindSpeedMPH,WindSpeedGustMPH,Humidity,HourlyPrecipIn,Conditions,Clouds,dailyrainin,SoftwareType,DateUTC
2013-04-19 00:01:00,57.3,27.7,30.15,SE,138,0.0,1.0,32,0.00,NA,NA,-99.99,VWS Version 10.39,2013-04-19 07:01:00,
2013-04-19 00:06:00,57.5,27.1,30.15,SE,138,1.0,1.0,31,0.00,NA,NA,-99.99,VWS Version 10.39,2013-04-19 07:06:00,
2013-04-19 00:11:00,58.0,26.8,30.15,SE,136,2.0,2.0,30,0.00,NA,NA,-99.99,VWS Version 10.39,2013-04-19 07:11:00,
2013-04-19 00:16:00,58.0,27.6,30.14,SE,134,1.0,2.0,31,0.00,NA,NA,-99.99,VWS Version 10.39,2013-04-19 07:16:00,
2013-04-19 00:21:00,57.6,28.0,30.14,ENE,67,2.0,4.0,32,0.00,NA,NA,-99.99,VWS Version 10.39,2013-04-19 07:21:00,
2013-04-19 00:26:00,57.3,27.7,30.14,ENE,66,0.0,0.0,32,0.00,NA,NA,-99.99,VWS Version 10.39,2013-04-19 07:26:00,
2013-04-19 00:31:00,56.9,26.6,30.14,ENE,66,2.0,2.0,31,0.00,NA,NA,-99.99,VWS Version 10.39,2013-04-19 07:31:00,
2013-04-19 00:36:00,56.7,27.2,30.14,ENE,66,1.0,1.0,32,0.00,NA,NA,-99.99,VWS Version 10.39,2013-04-19 07:36:00,
2013-04-19 00:41:00,56.4,26.9,30.14,ENE,66,0.0,1.0,32,0.00,NA,NA,-99.99,VWS Version 10.39,2013-04-19 07:41:00,
2013-04-19 00:46:00,56.3,26.8,30.15,ENE,66,0.0,1.0,32,0.00,NA,NA,-99.99,VWS Version 10.39,2013-04-19 07:46:00,
2013-04-19 00:51:00,56.4,26.9,30.15,ENE,66,0.0,0.0,32,0.00,NA,NA,-99.99,VWS Version 10.39,2013-04-19 07:51:00,
2013-04-19 00:56:00,56.4,26.2,30.15,ENE,66,0.0,0.0,31,0.00,NA,NA,-99.99,VWS Version 10.39,2013-04-19 07:56:00,
2013-04-19 01:01:00,56.6,26.3,30.14,ENE,66,2.0,3.0,31,0.00,NA,NA,-99.99,VWS Version 10.39,2013-04-19 08:01:00,
2013-04-19 01:06:00,56.4,25.4,30.14,NE,45,3.0,4.0,30,0.00,NA,NA,-99.99,VWS Version 10.39,2013-04-19 08:06:00,
2013-04-19 01:11:00,56.1,25.1,30.14,NE,53,4.0,4.0,30,0.00,NA,NA,-99.99,VWS Version 10.39,2013-04-19 08:11:00,
2013-04-19 01:16:00,56.0,25.0,30.14,NE,42,3.0,5.0,30,0.00,NA,NA,-99.99,VWS Version 10.39,2013-04-19 08:16:00,
2013-04-19 01:21:00,56.1,24.3,30.14,ENE,62,3.0,4.0,29,0.00,NA,NA,-99.99,VWS Version 10.39,2013-04-19 08:21:00,
2013-04-19 01:26:00,56.3,24.5,30.14,NE,55,3.0,3.0,29,0.00,NA,NA,-99.99,VWS Version 10.39,2013-04-19 08:26:00,
2013-04-19 01:31:00,56.6,23.9,30.14,NE,56,0.0,0.0,28,0.00,NA,NA,-99.99,VWS Version 10.39,2013-04-19 08:31:00,
2013-04-19 01:36:00,56.8,24.1,30.14,NE,56,0.0,0.0,28,0.00,NA,NA,-99.99,VWS Version 10.39,2013-04-19 08:36:00,
2013-04-19 01:41:00,56.4,25.4,30.13,NE,38,0.0,0.0,30,0.00,NA,NA,-99.99,VWS Version 10.39,2013-04-19 08:41:00,
2013-04-19 01:46:00,55.9,25.7,30.13,NE,38,0.0,0.0,31,0.00,NA,NA,-99.99,VWS Version 10.39,2013-04-19 08:46:00,
2013-04-19 01:51:00,55.8,24.0,30.13,ENE,60,3.0,4.0,29,0.00,NA,NA,-99.99,VWS Version 10.39,2013-04-19 08:51:00,
2013-04-19 01:56:00,56.2,25.2,30.13,NE,50,4.0,4.0,30,0.00,NA,NA,-99.99,VWS Version 10.39,2013-04-19 08:56:00,
2013-04-19 02:01:00,55.6,24.7,30.13,NE,48,4.0,4.0,30,0.00,NA,NA,-99.99,VWS Version 10.39,2013-04-19 09:01:00,
2013-04-19 02:06:00,55.6,24.7,30.12,ENE,57,2.0,4.0,30,0.00,NA,NA,-99.99,VWS Version 10.39,2013-04-19 09:06:00,
2013-04-19 02:11:00,56.0,23.4,30.13,NE,49,3.0,4.0,28,0.00,NA,NA,-99.99,VWS Version 10.39,2013-04-19 09:11:00,
2013-04-19 02:16:00,56.9,23.3,30.13,NE,44,1.0,2.0,27,0.00,NA,NA,-99.99,VWS Version 10.39,2013-04-19 09:16:00,
2013-04-19 02:21:00,56.9,23.3,30.12,NE,48,2.0,2.0,27,0.00,NA,NA,-99.99,VWS Version 10.39,2013-04-19 09:21:00,
2013-04-19 02:26:00,56.9,22.4,30.13,ENE,58,2.0,2.0,26,0.00,NA,NA,-99.99,VWS Version 10.39,2013-04-19 09:26:00,
2013-04-19 02:31:00,57.2,22.6,30.13,ENE,71,0.0,2.0,26,0.00,NA,NA,-99.99,VWS Version 10.39,2013-04-19 09:31:00,
2013-04-19 02:36:00,57.5,22.9,30.12,NE,36,2.0,4.0,26,0.00,NA,NA,-99.99,VWS Version 10.39,2013-04-19 09:36:00,
2013-04-19 02:41:00,57.2,23.5,30.12,NE,46,0.0,0.0,27,0.00,NA,NA,-99.99,VWS Version 10.39,2013-04-19 09:41:00,
2013-04-19 02:46:00,56.8,23.2,30.12,ENE,78,3.0,3.0,27,0.00,NA,NA,-99.99,VWS Version 10.39,2013-04-19 09:46:00,
2013-04-19 02:51:00,56.8,21.4,30.12,ESE,119,3.0,3.0,25,0.00,NA,NA,-99.99,VWS Version 10.39,2013-04-19 09:51:00,
2013-04-19 02:56:00,57.3,21.8,30.12,East,101,0.0,0.0,25,0.00,NA,NA,-99.99,VWS Version 10.39,2013-04-19 09:56:00,
2013-04-19 03:01:00,57.4,22.8,30.12,ENE,63,0.0,1.0,26,0.00,NA,NA,-99.99,VWS Version 10.39,2013-04-19 10:01:00,
2013-04-19 03:06:00,57.2,21.7,30.12,NE,44,2.0,5.0,25,0.00,NA,NA,-99.99,VWS Version 10.39,2013-04-19 10:06:00,
2013-04-19 03:11:00,57.4,21.9,30.11,ENE,61,5.0,7.0,25,0.00,NA,NA,-99.99,VWS Version 10.39,2013-04-19 10:11:00,
2013-04-19 03:16:00,57.3,22.7,30.12,NE,50,3.0,3.0,26,0.00,NA,NA,-99.99,VWS Version 10.39,2013-04-19 10:16:00,
2013-04-19 03:21:00,57.3,21.8,30.12,NE,44,1.0,3.0,25,0.00,NA,NA,-99.99,VWS Version 10.39,2013-04-19 10:21:00,
2013-04-19 03:26:00,56.8,22.3,30.11,NE,44,0.0,1.0,26,0.00,NA,NA,-99.99,VWS Version 10.39,2013-04-19 10:26:00,
2013-04-19 03:31:00,56.6,23.0,30.12,NE,44,0.0,0.0,27,0.00,NA,NA,-99.99,VWS Version 10.39,2013-04-19 10:31:00,
2013-04-19 03:36:00,56.2,22.7,30.12,NE,44,0.0,1.0,27,0.00,NA,NA,-99.99,VWS Version 10.39,2013-04-19 10:36:00,
2013-04-19 03:41:00,56.2,23.5,30.12,NE,44,0.0,1.0,28,0.00,NA,NA,-99.99,VWS Version 10.39,2013-04-19 10:41:00,
2013-04-19 03:46:00,55.7,24.0,30.12,NE,45,0.0,0.0,29,0.00,NA,NA,-99.99,VWS Version 10.39,2013-04-19 10:46:00,
2013-04-19 03:51:00,55.3,23.6,30.12,NE,45,0.0,0.0,29,0.00,NA,NA,-99.99,VWS Version 10.39,2013-04-19 10:51:00,
2013-04-19 03:56:00,54.8,23.2,30.12,NE,45,0.0,0.0,29,0.00,NA,NA,-99.99,VWS Version 10.39,2013-04-19 10:56:00,
2013-04-19 04:01:00,54.4,23.6,30.12,NE,44,0.0,0.0,30,0.00,NA,NA,-99.99,VWS Version 10.39,2013-04-19 11:01:00,
2013-04-19 04:11:00,54.2,23.5,30.12,NE,44,1.0,2.0,30,0.00,NA,NA,-99.99,VWS Version 10.39,2013-04-19 11:11:00,
2013-04-19 04:16:00,54.7,23.9,30.12,NE,45,2.0,3.0,30,0.00,NA,NA,-99.99,VWS Version 10.39,2013-04-19 11:16:00,
2013-04-19 04:21:00,54.6,23.8,30.13,NE,55,2.0,2.0,30,0.00,NA,NA,-99.99,VWS Version 10.39,2013-04-19 11:21:00,
2013-04-19 04:26:00,54.4,23.6,30.13,NE,55,2.0,3.0,30,0.00,NA,NA,-99.99,VWS Version 10.39,2013-04-19 11:26:00,
2013-04-19 04:31:00,54.4,24.4,30.13,NE,55,2.0,3.0,31,0.00,NA,NA,-99.99,VWS Version 10.39,2013-04-19 11:31:00,
2013-04-19 04:36:00,54.1,24.2,30.13,ENE,57,0.0,1.0,31,0.00,NA,NA,-99.99,VWS Version 10.39,2013-04-19 11:36:00,
2013-04-19 04:41:00,54.2,23.5,30.12,ENE,59,1.0,2.0,30,0.00,NA,NA,-99.99,VWS Version 10.39,2013-04-19 11:41:00,
2013-04-19 04:46:00,54.3,23.5,30.12,NE,53,3.0,3.0,30,0.00,NA,NA,-99.99,VWS Version 10.39,2013-04-19 11:46:00,
2013-04-19 04:51:00,54.6,23.0,30.12,NE,51,3.0,4.0,29,0.00,NA,NA,-99.99,VWS Version 10.39,2013-04-19 11:51:00,
2013-04-19 04:56:00,55.2,22.7,30.12,NE,47,2.0,2.0,28,0.00,NA,NA,-99.99,VWS Version 10.39,2013-04-19 11:56:00,
2013-04-19 07:26:00,62.3,19.5,30.14,SE,128,1.0,1.0,19,0.00,NA,NA,-99.99,VWS Version 10.39,2013-04-19 14:26:00,
2013-04-19 07:31:00,63.2,16.3,30.14,ENE,69,2.0,3.0,16,0.00,NA,NA,-99.99,VWS Version 10.39,2013-04-19 14:31:00,
2013-04-19 07:36:00,63.6,18.0,30.14,ENE,63,0.0,0.0,17,0.00,NA,NA,-99.99,VWS Version 10.39,2013-04-19 14:36:00,
2013-04-19 07:41:00,63.4,27.9,30.14,NNE,29,0.0,1.0,26,0.00,NA,NA,-99.99,VWS Version 10.39,2013-04-19 14:41:00,
2013-04-19 07:46:00,62.6,25.3,30.14,WNW,298,1.0,2.0,24,0.00,NA,NA,-99.99,VWS Version 10.39,2013-04-19 14:46:00,
2013-04-19 07:51:00,61.9,30.1,30.14,WNW,282,0.0,0.0,30,0.00,NA,NA,-99.99,VWS Version 10.39,2013-04-19 14:51:00,
2013-04-19 07:56:00,62.0,31.0,30.14,SSW,196,1.0,2.0,31,0.00,NA,NA,-99.99,VWS Version 10.39,2013-04-19 14:56:00,
2013-04-19 08:01:00,62.4,31.4,30.14,SSW,207,0.0,0.0,31,0.00,NA,NA,-99.99,VWS Version 10.39,2013-04-19 15:01:00,
2013-04-19 08:06:00,63.0,34.2,30.14,SSW,207,0.0,0.0,34,0.00,NA,NA,-99.99,VWS Version 10.39,2013-04-19 15:06:00,
2013-04-19 08:11:00,63.6,37.5,30.14,South,187,0.0,2.0,38,0.00,NA,NA,-99.99,VWS Version 10.39,2013-04-19 15:11:00,
2013-04-19 08:16:00,63.9,39.1,30.14,South,188,0.0,0.0,40,0.00,NA,NA,-99.99,VWS Version 10.39,2013-04-19 15:16:00,
2013-04-19 08:21:00,64.3,36.1,30.14,South,188,0.0,1.0,35,0.00,NA,NA,-99.99,VWS Version 10.39,2013-04-19 15:21:00,
2013-04-19 08:26:00,64.5,32.4,30.14,WSW,237,1.0,2.0,30,0.00,NA,NA,-99.99,VWS Version 10.39,2013-04-19 15:26:00,
2013-04-19 08:31:00,65.0,34.5,30.14,WSW,237,0.0,0.0,32,0.00,NA,NA,-99.99,VWS Version 10.39,2013-04-19 15:31:00,
2013-04-19 08:36:00,65.5,37.9,30.14,SSW,208,1.0,2.0,36,0.00,NA,NA,-99.99,VWS Version 10.39,2013-04-19 15:36:00,
2013-04-19 08:41:00,65.6,31.6,30.14,SSW,208,0.0,2.0,28,0.00,NA,NA,-99.99,VWS Version 10.39,2013-04-19 15:41:00,
2013-04-19 08:46:00,65.6,27.9,30.14,WNW,287,0.0,1.0,24,0.00,NA,NA,-99.99,VWS Version 10.39,2013-04-19 15:46:00,
2013-04-19 08:51:00,66.0,27.2,30.14,West,259,0.0,1.0,23,0.00,NA,NA,-99.99,VWS Version 10.39,2013-04-19 15:51:00,
2013-04-19 08:56:00,66.5,26.5,30.15,WSW,258,0.0,1.0,22,0.00,NA,NA,-99.99,VWS Version 10.39,2013-04-19 15:56:00,
2013-04-19 09:01:00,66.9,26.9,30.14,SW,223,2.0,4.0,22,0.00,NA,NA,-99.99,VWS Version 10.39,2013-04-19 16:01:00,
2013-04-19 09:06:00,66.5,29.6,30.14,WSW,254,0.0,1.0,25,0.00,NA,NA,-99.99,VWS Version 10.39,2013-04-19 16:06:00,
2013-04-19 09:11:00,65.6,38.0,30.14,WNW,287,1.0,1.0,36,0.00,NA,NA,-99.99,VWS Version 10.39,2013-04-19 16:11:00,
2013-04-19 09:16:00,64.8,41.2,30.14,West,267,1.0,2.0,42,0.00,NA,NA,-99.99,VWS Version 10.39,2013-04-19 16:16:00,
2013-04-19 09:21:00,65.1,39.5,30.15,West,267,1.0,1.0,39,0.00,NA,NA,-99.99,VWS Version 10.39,2013-04-19 16:21:00,
2013-04-19 09:26:00,65.8,40.8,30.15,SSW,206,2.0,2.0,40,0.00,NA,NA,-99.99,VWS Version 10.39,2013-04-19 16:26:00,
2013-04-19 09:31:00,65.9,42.8,30.15,SSW,205,1.0,2.0,43,0.00,NA,NA,-99.99,VWS Version 10.39,2013-04-19 16:31:00,
2013-04-19 09:36:00,65.9,44.0,30.15,SSW,196,1.0,4.0,45,0.00,NA,NA,-99.99,VWS Version 10.39,2013-04-19 16:36:00,
2013-04-19 09:41:00,65.6,42.5,30.15,South,181,2.0,3.0,43,0.00,NA,NA,-99.99,VWS Version 10.39,2013-04-19 16:41:00,
2013-04-19 09:46:00,65.1,43.3,30.15,SSW,210,0.0,1.0,45,0.00,NA,NA,-99.99,VWS Version 10.39,2013-04-19 16:46:00,
2013-04-19 09:51:00,65.2,41.5,30.15,SSW,199,1.0,2.0,42,0.00,NA,NA,-99.99,VWS Version 10.39,2013-04-19 16:51:00,
2013-04-19 09:56:00,65.6,40.7,30.15,SW,235,2.0,2.0,40,0.00,NA,NA,-99.99,VWS Version 10.39,2013-04-19 16:56:00,
2013-04-19 10:01:00,65.9,40.3,30.15,WSW,248,2.0,2.0,39,0.00,NA,NA,-99.99,VWS Version 10.39,2013-04-19 17:01:00,
2013-04-19 10:06:00,65.8,42.1,30.14,WNW,290,1.0,2.0,42,0.00,NA,NA,-99.99,VWS Version 10.39,2013-04-19 17:06:00,
2013-04-19 10:11:00,66.0,39.7,30.14,WSW,256,0.0,2.0,38,0.00,NA,NA,-99.99,VWS Version 10.39,2013-04-19 17:11:00,
2013-04-19 10:16:00,66.7,42.9,30.14,West,277,4.0,4.0,42,0.00,NA,NA,-99.99,VWS Version 10.39,2013-04-19 17:16:00,
2013-04-19 10:21:00,66.7,44.1,30.14,SW,215,1.0,3.0,44,0.00,NA,NA,-99.99,VWS Version 10.39,2013-04-19 17:21:00,
2013-04-19 10:26:00,66.8,43.6,30.14,West,261,2.0,2.0,43,0.00,NA,NA,-99.99,VWS Version 10.39,2013-04-19 17:26:00,
2013-04-19 10:31:00,67.1,43.3,30.14,West,269,0.0,1.0,42,0.00,NA,NA,-99.99,VWS Version 10.39,2013-04-19 17:31:00,
2013-04-19 10:36:00,67.3,45.2,30.14,West,275,1.0,1.0,45,0.00,NA,NA,-99.99,VWS Version 10.39,2013-04-19 17:36:00,
2013-04-19 10:41:00,66.9,45.5,30.14,SW,217,2.0,3.0,46,0.00,NA,NA,-99.99,VWS Version 10.39,2013-04-19 17:41:00,
2013-04-19 10:46:00,66.7,45.8,30.14,WSW,244,3.0,3.0,47,0.00,NA,NA,-99.99,VWS Version 10.39,2013-04-19 17:46:00,
2013-04-19 10:51:00,67.1,46.8,30.14,SW,234,4.0,5.0,48,0.00,NA,NA,-99.99,VWS Version 10.39,2013-04-19 17:51:00,
2013-04-19 10:56:00,67.0,46.1,30.14,SSW,204,0.0,1.0,47,0.00,NA,NA,-99.99,VWS Version 10.39,2013-04-19 17:56:00,
2013-04-19 11:01:00,67.2,46.9,30.14,SSW,204,0.0,1.0,48,0.00,NA,NA,-99.99,VWS Version 10.39,2013-04-19 18:01:00,
2013-04-19 11:06:00,67.6,46.7,30.13,SSW,196,1.0,2.0,47,0.00,NA,NA,-99.99,VWS Version 10.39,2013-04-19 18:06:00,
2013-04-19 11:11:00,67.2,41.4,30.13,WNW,294,2.0,4.0,39,0.00,NA,NA,-99.99,VWS Version 10.39,2013-04-19 18:11:00,
2013-04-19 11:16:00,66.4,42.6,30.13,WNW,288,2.0,2.0,42,0.00,NA,NA,-99.99,VWS Version 10.39,2013-04-19 18:16:00,
2013-04-19 11:21:00,66.8,43.0,30.13,West,261,4.0,4.0,42,0.00,NA,NA,-99.99,VWS Version 10.39,2013-04-19 18:21:00,
2013-04-19 11:26:00,66.7,42.9,30.13,SW,232,4.0,4.0,42,0.00,NA,NA,-99.99,VWS Version 10.39,2013-04-19 18:26:00,
2013-04-19 11:31:00,66.5,42.1,30.12,West,269,2.0,5.0,41,0.00,NA,NA,-99.99,VWS Version 10.39,2013-04-19 18:31:00,
2013-04-19 11:36:00,66.4,43.2,30.13,WNW,295,2.0,2.0,43,0.00,NA,NA,-99.99,VWS Version 10.39,2013-04-19 18:36:00,
2013-04-19 11:41:00,66.5,45.7,30.12,SSW,200,0.0,2.0,47,0.00,NA,NA,-99.99,VWS Version 10.39,2013-04-19 18:41:00,
2013-04-19 11:46:00,66.9,45.5,30.12,SW,235,1.0,3.0,46,0.00,NA,NA,-99.99,VWS Version 10.39,2013-04-19 18:46:00,
2013-04-19 11:51:00,67.2,46.3,30.12,NW,323,2.0,5.0,47,0.00,NA,NA,-99.99,VWS Version 10.39,2013-04-19 18:51:00,
2013-04-19 11:56:00,67.0,46.1,30.12,West,259,4.0,5.0,47,0.00,NA,NA,-99.99,VWS Version 10.39,2013-04-19 18:56:00,
2013-04-19 12:01:00,67.1,45.1,30.11,WNW,289,2.0,4.0,45,0.00,NA,NA,-99.99,VWS Version 10.39,2013-04-19 19:01:00,
2013-04-19 12:06:00,66.5,43.3,30.11,WNW,291,3.0,5.0,43,0.00,NA,NA,-99.99,VWS Version 10.39,2013-04-19 19:06:00,
2013-04-19 12:11:00,66.3,44.3,30.11,WNW,287,4.0,4.0,45,0.00,NA,NA,-99.99,VWS Version 10.39,2013-04-19 19:11:00,
2013-04-19 12:16:00,66.8,43.0,30.10,WSW,242,1.0,2.0,42,0.00,NA,NA,-99.99,VWS Version 10.39,2013-04-19 19:16:00,
2013-04-19 12:21:00,67.7,43.8,30.10,NNW,327,2.0,3.0,42,0.00,NA,NA,-99.99,VWS Version 10.39,2013-04-19 19:21:00,
2013-04-19 12:26:00,68.0,45.3,30.10,NW,320,3.0,3.0,44,0.00,NA,NA,-99.99,VWS Version 10.39,2013-04-19 19:26:00,
2013-04-19 12:31:00,68.0,44.1,30.09,WNW,298,3.0,3.0,42,0.00,NA,NA,-99.99,VWS Version 10.39,2013-04-19 19:31:00,
2013-04-19 12:36:00,68.6,46.4,30.09,West,267,1.0,1.0,45,0.00,NA,NA,-99.99,VWS Version 10.39,2013-04-19 19:36:00,
2013-04-19 12:41:00,69.3,45.9,30.09,West,267,4.0,5.0,43,0.00,NA,NA,-99.99,VWS Version 10.39,2013-04-19 19:41:00,
2013-04-19 12:46:00,69.2,45.8,30.09,SSW,202,2.0,4.0,43,0.00,NA,NA,-99.99,VWS Version 10.39,2013-04-19 19:46:00,
2013-04-19 12:51:00,69.1,46.3,30.08,WNW,282,3.0,4.0,44,0.00,NA,NA,-99.99,VWS Version 10.39,2013-04-19 19:51:00,
2013-04-19 12:56:00,68.9,45.5,30.08,SSE,162,4.0,4.0,43,0.00,NA,NA,-99.99,VWS Version 10.39,2013-04-19 19:56:00,
2013-04-19 13:01:00,68.8,46.0,30.07,WSW,248,6.0,6.0,44,0.00,NA,NA,-99.99,VWS Version 10.39,2013-04-19 20:01:00,
2013-04-19 13:06:00,68.6,47.6,30.07,SW,221,2.0,2.0,47,0.00,NA,NA,-99.99,VWS Version 10.39,2013-04-19 20:06:00,
2013-04-19 13:11:00,68.5,47.5,30.07,NNW,327,6.0,7.0,47,0.00,NA,NA,-99.99,VWS Version 10.39,2013-04-19 20:11:00,
2013-04-19 13:16:00,68.6,49.2,30.07,WSW,251,3.0,6.0,50,0.00,NA,NA,-99.99,VWS Version 10.39,2013-04-19 20:16:00,
2013-04-19 13:21:00,68.5,50.2,30.07,WNW,300,2.0,4.0,52,0.00,NA,NA,-99.99,VWS Version 10.39,2013-04-19 20:21:00,
2013-04-19 13:26:00,68.5,50.2,30.07,SW,228,1.0,3.0,52,0.00,NA,NA,-99.99,VWS Version 10.39,2013-04-19 20:26:00,
2013-04-19 13:31:00,68.6,49.8,30.06,West,281,4.0,4.0,51,0.00,NA,NA,-99.99,VWS Version 10.39,2013-04-19 20:31:00,
2013-04-19 13:36:00,68.5,50.2,30.06,West,265,5.0,6.0,52,0.00,NA,NA,-99.99,VWS Version 10.39,2013-04-19 20:36:00,
2013-04-19 13:41:00,68.0,50.2,30.06,West,275,2.0,3.0,53,0.00,NA,NA,-99.99,VWS Version 10.39,2013-04-19 20:41:00,
2013-04-19 13:46:00,68.0,50.2,30.06,West,264,2.0,2.0,53,0.00,NA,NA,-99.99,VWS Version 10.39,2013-04-19 20:46:00,
2013-04-19 13:51:00,68.1,50.3,30.06,WSW,246,5.0,5.0,53,0.00,NA,NA,-99.99,VWS Version 10.39,2013-04-19 20:51:00,
2013-04-19 13:56:00,68.1,49.8,30.05,West,260,4.0,5.0,52,0.00,NA,NA,-99.99,VWS Version 10.39,2013-04-19 20:56:00,
2013-04-19 14:01:00,68.1,50.3,30.05,NW,317,4.0,6.0,53,0.00,NA,NA,-99.99,VWS Version 10.39,2013-04-19 21:01:00,
2013-04-19 14:06:00,68.5,50.2,30.05,WSW,256,6.0,6.0,52,0.00,NA,NA,-99.99,VWS Version 10.39,2013-04-19 21:06:00,
2013-04-19 14:11:00,68.5,50.2,30.04,NNW,327,4.0,6.0,52,0.00,NA,NA,-99.99,VWS Version 10.39,2013-04-19 21:11:00,
2013-04-19 14:16:00,68.9,50.0,30.05,NW,318,5.0,5.0,51,0.00,NA,NA,-99.99,VWS Version 10.39,2013-04-19 21:16:00,
2013-04-19 14:21:00,69.1,50.2,30.04,SSW,207,0.0,2.0,51,0.00,NA,NA,-99.99,VWS Version 10.39,2013-04-19 21:21:00,
2013-04-19 14:26:00,69.8,49.8,30.04,NW,325,3.0,5.0,49,0.00,NA,NA,-99.99,VWS Version 10.39,2013-04-19 21:26:00,
2013-04-19 14:31:00,70.6,50.0,30.04,NW,325,3.0,3.0,48,0.00,NA,NA,-99.99,VWS Version 10.39,2013-04-19 21:31:00,
2013-04-19 14:36:00,71.3,47.0,30.03,NW,304,3.0,3.0,42,0.00,NA,NA,-99.99,VWS Version 10.39,2013-04-19 21:36:00,
2013-04-19 14:41:00,72.1,46.5,30.03,West,264,3.0,10.0,40,0.00,NA,NA,-99.99,VWS Version 10.39,2013-04-19 21:41:00,
2013-04-19 14:46:00,72.1,46.5,30.03,NNW,340,4.0,5.0,40,0.00,NA,NA,-99.99,VWS Version 10.39,2013-04-19 21:46:00,
2013-04-19 14:51:00,71.5,46.6,30.03,WNW,302,7.0,7.0,41,0.00,NA,NA,-99.99,VWS Version 10.39,2013-04-19 21:51:00,
2013-04-19 14:56:00,70.5,47.0,30.02,WNW,286,4.0,7.0,43,0.00,NA,NA,-99.99,VWS Version 10.39,2013-04-19 21:56:00,
2013-04-19 15:01:00,69.9,46.4,30.02,WNW,300,5.0,5.0,43,0.00,NA,NA,-99.99,VWS Version 10.39,2013-04-19 22:01:00,
2013-04-19 15:06:00,70.3,46.2,30.02,NW,313,4.0,7.0,42,0.00,NA,NA,-99.99,VWS Version 10.39,2013-04-19 22:06:00,
2013-04-19 15:11:00,70.6,47.7,30.01,WNW,285,4.0,4.0,44,0.00,NA,NA,-99.99,VWS Version 10.39,2013-04-19 22:11:00,
2013-04-19 15:16:00,71.0,47.4,30.01,WNW,298,5.0,6.0,43,0.00,NA,NA,-99.99,VWS Version 10.39,2013-04-19 22:16:00,
2013-04-19 15:21:00,70.9,41.2,30.01,North,5,6.0,9.0,34,0.00,NA,NA,-99.99,VWS Version 10.39,2013-04-19 22:21:00,
2013-04-19 15:26:00,71.8,41.2,30.01,WNW,289,6.0,7.0,33,0.00,NA,NA,-99.99,VWS Version 10.39,2013-04-19 22:26:00,
2013-04-19 15:31:00,72.4,40.1,30.00,West,273,5.0,11.0,31,0.00,NA,NA,-99.99,VWS Version 10.39,2013-04-19 22:31:00,
2013-04-19 15:36:00,72.6,44.9,30.00,WNW,287,4.0,7.0,37,0.00,NA,NA,-99.99,VWS Version 10.39,2013-04-19 22:36:00,
2013-04-19 15:41:00,72.4,42.5,30.00,WNW,290,7.0,9.0,34,0.00,NA,NA,-99.99,VWS Version 10.39,2013-04-19 22:41:00,
2013-04-19 15:46:00,71.9,39.7,30.00,NW,321,9.0,9.0,31,0.00,NA,NA,-99.99,VWS Version 10.39,2013-04-19 22:46:00,
2013-04-19 15:51:00,72.5,37.6,30.00,NE,34,4.0,6.0,28,0.00,NA,NA,-99.99,VWS Version 10.39,2013-04-19 22:51:00,
2013-04-19 15:56:00,73.1,43.8,30.00,West,262,5.0,5.0,35,0.00,NA,NA,-99.99,VWS Version 10.39,2013-04-19 22:56:00,
2013-04-19 16:01:00,73.7,39.5,30.00,NW,310,5.0,6.0,29,0.00,NA,NA,-99.99,VWS Version 10.39,2013-04-19 23:01:00,
2013-04-19 16:06:00,74.2,37.1,30.00,WNW,294,3.0,5.0,26,0.00,NA,NA,-99.99,VWS Version 10.39,2013-04-19 23:06:00,
2013-04-19 16:11:00,74.3,36.2,30.00,West,270,2.0,4.0,25,0.00,NA,NA,-99.99,VWS Version 10.39,2013-04-19 23:11:00,
2013-04-19 16:16:00,74.5,34.3,30.00,WNW,282,5.0,6.0,23,0.00,NA,NA,-99.99,VWS Version 10.39,2013-04-19 23:16:00,
2013-04-19 16:21:00,74.1,37.1,30.00,WNW,290,5.0,6.0,26,0.00,NA,NA,-99.99,VWS Version 10.39,2013-04-19 23:21:00,
2013-04-19 16:26:00,73.3,38.3,29.99,WNW,302,4.0,6.0,28,0.00,NA,NA,-99.99,VWS Version 10.39,2013-04-19 23:26:00,
2013-04-19 16:31:00,73.1,42.3,29.99,WNW,303,6.0,7.0,33,0.00,NA,NA,-99.99,VWS Version 10.39,2013-04-19 23:31:00,
2013-04-19 16:36:00,72.6,40.3,29.99,WSW,257,4.0,7.0,31,0.00,NA,NA,-99.99,VWS Version 10.39,2013-04-19 23:36:00,
2013-04-19 16:41:00,72.2,43.1,29.99,West,277,3.0,4.0,35,0.00,NA,NA,-99.99,VWS Version 10.39,2013-04-19 23:41:00,
2013-04-19 16:46:00,71.4,43.8,29.99,WNW,301,6.0,6.0,37,0.00,NA,NA,-99.99,VWS Version 10.39,2013-04-19 23:46:00,
2013-04-19 16:51:00,70.9,44.7,29.99,WNW,288,4.0,4.0,39,0.00,NA,NA,-99.99,VWS Version 10.39,2013-04-19 23:51:00,
2013-04-19 16:56:00,70.5,45.0,29.99,NNW,337,4.0,7.0,40,0.00,NA,NA,-99.99,VWS Version 10.39,2013-04-19 23:56:00,
2013-04-19 17:01:00,70.5,45.0,29.99,WNW,300,8.0,8.0,40,0.00,NA,NA,-99.99,VWS Version 10.39,2013-04-20 00:01:00,
2013-04-19 17:06:00,70.6,43.8,29.99,SSW,206,4.0,6.0,38,0.00,NA,NA,-99.99,VWS Version 10.39,2013-04-20 00:06:00,
2013-04-19 17:11:00,70.8,44.0,29.99,NNW,328,3.0,5.0,38,0.00,NA,NA,-99.99,VWS Version 10.39,2013-04-20 00:11:00,
2013-04-19 17:16:00,71.0,42.7,29.99,West,269,3.0,5.0,36,0.00,NA,NA,-99.99,VWS Version 10.39,2013-04-20 00:16:00,
2013-04-19 17:21:00,71.3,42.3,29.99,NW,306,4.0,5.0,35,0.00,NA,NA,-99.99,VWS Version 10.39,2013-04-20 00:21:00,
2013-04-19 17:26:00,71.8,39.6,29.99,NNW,340,5.0,5.0,31,0.00,NA,NA,-99.99,VWS Version 10.39,2013-04-20 00:26:00,
2013-04-19 17:31:00,72.4,39.2,29.99,WNW,284,3.0,4.0,30,0.00,NA,NA,-99.99,VWS Version 10.39,2013-04-20 00:31:00,
2013-04-19 17:36:00,72.8,30.6,29.99,WNW,289,10.0,13.0,21,0.00,NA,NA,-99.99,VWS Version 10.39,2013-04-20 00:36:00,
2013-04-19 17:41:00,73.3,24.4,29.99,WNW,294,12.0,16.0,16,0.00,NA,NA,-99.99,VWS Version 10.39,2013-04-20 00:41:00,
2013-04-19 17:46:00,73.4,24.5,29.99,WNW,289,7.0,9.0,16,0.00,NA,NA,-99.99,VWS Version 10.39,2013-04-20 00:46:00,
2013-04-19 17:51:00,73.8,19.9,29.98,WNW,302,14.0,16.0,13,0.00,NA,NA,-99.99,VWS Version 10.39,2013-04-20 00:51:00,
2013-04-19 17:56:00,74.1,20.2,29.99,NNW,346,13.0,13.0,13,0.00,NA,NA,-99.99,VWS Version 10.39,2013-04-20 00:56:00,
2013-04-19 18:01:00,74.3,20.3,29.98,WNW,299,5.0,9.0,13,0.00,NA,NA,-99.99,VWS Version 10.39,2013-04-20 01:01:00,
2013-04-19 18:11:00,74.5,18.6,29.99,WNW,290,11.0,15.0,12,0.00,NA,NA,-99.99,VWS Version 10.39,2013-04-20 01:11:00,
2013-04-19 18:16:00,74.2,20.2,29.99,NW,304,3.0,6.0,13,0.00,NA,NA,-99.99,VWS Version 10.39,2013-04-20 01:16:00,
2013-04-19 18:21:00,73.7,23.2,29.98,WNW,286,7.0,8.0,15,0.00,NA,NA,-99.99,VWS Version 10.39,2013-04-20 01:21:00,
2013-04-19 18:26:00,73.3,24.4,29.98,WNW,284,7.0,7.0,16,0.00,NA,NA,-99.99,VWS Version 10.39,2013-04-20 01:26:00,
2013-04-19 18:31:00,72.9,25.6,29.98,West,271,5.0,5.0,17,0.00,NA,NA,-99.99,VWS Version 10.39,2013-04-20 01:31:00,
2013-04-19 18:36:00,72.7,25.4,29.98,WNW,291,5.0,5.0,17,0.00,NA,NA,-99.99,VWS Version 10.39,2013-04-20 01:36:00,
2013-04-19 18:41:00,72.5,25.2,29.98,NW,315,5.0,5.0,17,0.00,NA,NA,-99.99,VWS Version 10.39,2013-04-20 01:41:00,
2013-04-19 18:46:00,72.1,26.3,29.98,WNW,289,3.0,6.0,18,0.00,NA,NA,-99.99,VWS Version 10.39,2013-04-20 01:46:00,
2013-04-19 18:51:00,72.0,24.8,29.98,West,272,2.0,4.0,17,0.00,NA,NA,-99.99,VWS Version 10.39,2013-04-20 01:51:00,
2013-04-19 18:56:00,71.7,30.9,29.98,WNW,298,3.0,6.0,22,0.00,NA,NA,-99.99,VWS Version 10.39,2013-04-20 01:56:00,
2013-04-19 19:01:00,70.6,33.1,29.98,NW,304,4.0,4.0,25,0.00,NA,NA,-99.99,VWS Version 10.39,2013-04-20 02:01:00,
2013-04-19 19:06:00,69.9,36.2,29.98,WNW,290,5.0,8.0,29,0.00,NA,NA,-99.99,VWS Version 10.39,2013-04-20 02:06:00,
2013-04-19 19:11:00,69.1,36.4,29.98,West,277,5.0,7.0,30,0.00,NA,NA,-99.99,VWS Version 10.39,2013-04-20 02:11:00,
2013-04-19 19:16:00,68.2,39.5,29.98,WNW,286,5.0,6.0,35,0.00,NA,NA,-99.99,VWS Version 10.39,2013-04-20 02:16:00,
2013-04-19 19:21:00,67.7,39.1,29.97,WNW,294,1.0,3.0,35,0.00,NA,NA,-99.99,VWS Version 10.39,2013-04-20 02:21:00,
2013-04-19 19:26:00,67.4,38.8,29.97,NW,307,2.0,3.0,35,0.00,NA,NA,-99.99,VWS Version 10.39,2013-04-20 02:26:00,
2013-04-19 19:31:00,67.4,38.1,29.97,WNW,290,4.0,5.0,34,0.00,NA,NA,-99.99,VWS Version 10.39,2013-04-20 02:31:00,
2013-04-19 19:36:00,67.3,38.0,29.97,WNW,297,2.0,2.0,34,0.00,NA,NA,-99.99,VWS Version 10.39,2013-04-20 02:36:00,
2013-04-19 19:41:00,67.1,37.8,29.98,WNW,288,1.0,3.0,34,0.00,NA,NA,-99.99,VWS Version 10.39,2013-04-20 02:41:00,
2013-04-19 19:46:00,66.9,36.1,29.98,WNW,288,0.0,1.0,32,0.00,NA,NA,-99.99,VWS Version 10.39,2013-04-20 02:46:00,
2013-04-19 19:51:00,66.9,33.6,29.98,NW,325,5.0,6.0,29,0.00,NA,NA,-99.99,VWS Version 10.39,2013-04-20 02:51:00,
2013-04-19 19:56:00,67.5,31.4,29.98,NW,306,9.0,9.0,26,0.00,NA,NA,-99.99,VWS Version 10.39,2013-04-20 02:56:00,
2013-04-19 20:01:00,67.8,31.7,29.98,NNW,347,3.0,3.0,26,0.00,NA,NA,-99.99,VWS Version 10.39,2013-04-20 03:01:00,
2013-04-19 20:06:00,68.0,30.9,29.98,NNW,331,5.0,5.0,25,0.00,NA,NA,-99.99,VWS Version 10.39,2013-04-20 03:06:00,
2013-04-19 20:11:00,68.3,31.1,29.98,North,5,5.0,5.0,25,0.00,NA,NA,-99.99,VWS Version 10.39,2013-04-20 03:11:00,
2013-04-19 20:16:00,68.4,30.2,29.98,NW,325,2.0,3.0,24,0.00,NA,NA,-99.99,VWS Version 10.39,2013-04-20 03:16:00,
2013-04-19 20:21:00,68.5,30.3,29.98,WNW,303,3.0,4.0,24,0.00,NA,NA,-99.99,VWS Version 10.39,2013-04-20 03:21:00,
2013-04-19 20:26:00,68.5,30.3,29.99,NW,304,3.0,4.0,24,0.00,NA,NA,-99.99,VWS Version 10.39,2013-04-20 03:26:00,
2013-04-19 20:31:00,68.3,30.1,29.99,NW,310,3.0,4.0,24,0.00,NA,NA,-99.99,VWS Version 10.39,2013-04-20 03:31:00,
2013-04-19 20:36:00,68.3,30.1,29.99,NW,310,2.0,3.0,24,0.00,NA,NA,-99.99,VWS Version 10.39,2013-04-20 03:36:00,
2013-04-19 20:41:00,68.1,31.0,29.99,NW,309,0.0,0.0,25,0.00,NA,NA,-99.99,VWS Version 10.39,2013-04-20 03:41:00,
2013-04-19 20:46:00,67.7,31.6,29.99,NW,309,0.0,0.0,26,0.00,NA,NA,-99.99,VWS Version 10.39,2013-04-20 03:46:00,
2013-04-19 20:51:00,67.2,31.2,29.99,NW,309,0.0,0.0,26,0.00,NA,NA,-99.99,VWS Version 10.39,2013-04-20 03:51:00,
2013-04-19 20:56:00,66.7,29.8,29.99,NW,309,0.0,0.0,25,0.00,NA,NA,-99.99,VWS Version 10.39,2013-04-20 03:56:00,
2013-04-19 21:01:00,66.1,30.2,29.99,NW,309,0.0,0.0,26,0.00,NA,NA,-99.99,VWS Version 10.39,2013-04-20 04:01:00,
2013-04-19 21:06:00,65.5,37.2,29.99,NW,309,1.0,2.0,35,0.00,NA,NA,-99.99,VWS Version 10.39,2013-04-20 04:06:00,
2013-04-19 21:11:00,64.5,39.7,29.99,NW,316,0.0,1.0,40,0.00,NA,NA,-99.99,VWS Version 10.39,2013-04-20 04:11:00,
2013-04-19 21:16:00,63.6,40.1,30.00,NW,316,1.0,1.0,42,0.00,NA,NA,-99.99,VWS Version 10.39,2013-04-20 04:16:00,
2013-04-19 21:21:00,63.1,42.0,30.00,WNW,296,1.0,2.0,46,0.00,NA,NA,-99.99,VWS Version 10.39,2013-04-20 04:21:00,
2013-04-19 21:26:00,62.7,43.3,30.00,WNW,302,1.0,2.0,49,0.00,NA,NA,-99.99,VWS Version 10.39,2013-04-20 04:26:00,
2013-04-19 21:31:00,62.4,43.5,29.99,WNW,302,1.0,2.0,50,0.00,NA,NA,-99.99,VWS Version 10.39,2013-04-20 04:31:00,
2013-04-19 21:36:00,62.1,43.8,30.00,WNW,302,1.0,1.0,51,0.00,NA,NA,-99.99,VWS Version 10.39,2013-04-20 04:36:00,
2013-04-19 21:41:00,61.9,40.9,29.99,North,5,1.0,2.0,46,0.00,NA,NA,-99.99,VWS Version 10.39,2013-04-20 04:41:00,
2013-04-19 21:46:00,61.8,36.0,29.99,ENE,70,1.0,2.0,38,0.00,NA,NA,-99.99,VWS Version 10.39,2013-04-20 04:46:00,
2013-04-19 21:51:00,62.0,34.8,29.99,SE,131,2.0,2.0,36,0.00,NA,NA,-99.99,VWS Version 10.39,2013-04-20 04:51:00,
2013-04-19 21:56:00,61.6,34.4,29.99,SE,139,0.0,1.0,36,0.00,NA,NA,-99.99,VWS Version 10.39,2013-04-20 04:56:00,
2013-04-19 22:01:00,61.4,36.2,29.99,SE,139,3.0,3.0,39,0.00,NA,NA,-99.99,VWS Version 10.39,2013-04-20 05:01:00,
2013-04-19 22:11:00,60.9,37.7,29.99,SE,137,3.0,3.0,42,0.00,NA,NA,-99.99,VWS Version 10.39,2013-04-20 05:11:00,
2013-04-19 22:16:00,60.5,41.3,29.99,SE,144,3.0,3.0,49,0.00,NA,NA,-99.99,VWS Version 10.39,2013-04-20 05:16:00,
2013-04-19 22:21:00,60.1,38.1,29.99,SSE,153,4.0,4.0,44,0.00,NA,NA,-99.99,VWS Version 10.39,2013-04-20 05:21:00,
2013-04-19 22:26:00,59.6,37.7,30.00,SE,136,1.0,3.0,44,0.00,NA,NA,-99.99,VWS Version 10.39,2013-04-20 05:26:00,
2013-04-19 22:31:00,59.4,40.2,29.99,SE,138,0.0,1.0,49,0.00,NA,NA,-99.99,VWS Version 10.39,2013-04-20 05:31:00,
2013-04-19 22:36:00,59.2,42.1,29.99,SE,138,0.0,0.0,53,0.00,NA,NA,-99.99,VWS Version 10.39,2013-04-20 05:36:00,
2013-04-19 22:41:00,58.9,41.8,30.00,SE,138,0.0,0.0,53,0.00,NA,NA,-99.99,VWS Version 10.39,2013-04-20 05:41:00,
2013-04-19 22:46:00,58.6,44.8,29.99,SE,138,1.0,1.0,60,0.00,NA,NA,-99.99,VWS Version 10.39,2013-04-20 05:46:00,
2013-04-19 22:51:00,58.2,46.1,30.00,SE,144,2.0,3.0,64,0.00,NA,NA,-99.99,VWS Version 10.39,2013-04-20 05:51:00,
2013-04-19 22:56:00,57.8,47.3,30.00,SSE,155,1.0,2.0,68,0.00,NA,NA,-99.99,VWS Version 10.39,2013-04-20 05:56:00,
2013-04-19 23:01:00,57.8,48.8,30.00,SSE,155,0.0,0.0,72,0.00,NA,NA,-99.99,VWS Version 10.39,2013-04-20 06:01:00,
2013-04-19 23:06:00,57.7,49.8,30.00,SSE,155,1.0,1.0,75,0.00,NA,NA,-99.99,VWS Version 10.39,2013-04-20 06:06:00,
2013-04-19 23:11:00,57.8,51.3,30.00,SSE,158,2.0,2.0,79,0.00,NA,NA,-99.99,VWS Version 10.39,2013-04-20 06:11:00,
2013-04-19 23:16:00,57.8,52.0,30.01,South,185,1.0,1.0,81,0.00,NA,NA,-99.99,VWS Version 10.39,2013-04-20 06:16:00,
2013-04-19 23:21:00,57.7,52.2,30.01,South,191,0.0,1.0,82,0.00,NA,NA,-99.99,VWS Version 10.39,2013-04-20 06:21:00,
2013-04-19 23:26:00,57.7,52.6,30.00,South,175,2.0,3.0,83,0.00,NA,NA,-99.99,VWS Version 10.39,2013-04-20 06:26:00,
2013-04-19 23:31:00,57.5,52.4,30.01,South,187,0.0,1.0,83,0.00,NA,NA,-99.99,VWS Version 10.39,2013-04-20 06:31:00,
2013-04-19 23:36:00,57.4,52.3,30.01,SSW,196,0.0,1.0,83,0.00,NA,NA,-99.99,VWS Version 10.39,2013-04-20 06:36:00,
2013-04-19 23:41:00,57.2,52.1,30.01,SSW,193,0.0,0.0,83,0.00,NA,NA,-99.99,VWS Version 10.39,2013-04-20 06:41:00,
2013-04-19 23:46:00,57.1,52.3,30.01,SSW,193,1.0,1.0,84,0.00,NA,NA,-99.99,VWS Version 10.39,2013-04-20 06:46:00,
2013-04-19 23:51:00,57.0,52.2,30.01,SSE,163,3.0,4.0,84,0.00,NA,NA,-99.99,VWS Version 10.39,2013-04-20 06:51:00,
2013-04-19 23:56:00,56.9,52.4,30.01,SSE,149,2.0,4.0,85,0.00,NA,NA,-99.99,VWS Version 10.39,2013-04-20 06:56:00,